DECAYED

FREGAT R/B, 41943 (Decayed)

Orbit data source: Space-Track

FREGAT R/B, 41943 was space debris in LEO originally from a launch on Sat, 28 Jan 2017 UTC launched from the French Guiana (FRGUI). Debris objects in space refer to the collection of defunct objects orbiting the Earth. Examples of debris include non-operational satellites, rocket bodies, and fragments generated from explosions, collisions, or faulty payload assembly.

Not visible in the next 10 days
Identifier
41943, 2017-006B
Orbit
Decayed
Country
Flag of CISCIS
Related business
Manufacturer
Lavochkin
Mission
Decayed spacecraft
Bus & Motor
FREGAT, Unknown motor
Mass
1,050 kg wet, 1,050 kg dry
Launch date (UTC)
2017-01-28 (9 years ago)
Launch vehicle
Unknown
Launch site
French Guiana (FRGUI)
Object type
Payload
Rocket body
Debris
Shape & HBR
Irr, 1.6 m
Radar Cross Section
11.055 m², Large (>1 m²)

Expand to show TLE details & history
Last TLE update: 1 year ago

TLE from 1 year ago
0 FREGAT R/B
1 41943U 17006B   24177.00033565  .00009157 -28936-4  00000+0 0  9992
2 41943   5.2036 315.6612 0546908 194.0633 342.7898 15.24445037 96473
Epoch: 2024-06-25T00:00Z
TLE epoch observation values (Epoch: 2024-06-25T00:00:29Z)
Latitude
0.46635°
Longitude
-143.18414°
Altitude
132.424 km
Speed
8.03 km/s
True Right ascension
08h 42m 15s
True Declination
0° 27' 48"
Sunlit
Object was in daylight at epoch
Visualization orbit readout
Latitude
Unknown
Longitude
Unknown
Altitude
Unknown
Speed
Unknown
Apparent Right ascension
Unknown
Apparent Declination
Unknown
Sunlit
N/A
Visualization observer readout
Local Sidereal Time
01:43:06
Azimuth
Unknown
Elevation
Unknown
Doppler factor
Unknown
Orbital elements
Apogee altitude
874.927 km
Perigee altitude
122.714 km
Semi-major axis
6,876.958 km
Eccentricity
0.05469
Inclination
5.2036°
RAAN
315.6612°
Arg. of periapsis
194.0633°
True anomaly
340.80674°
Mean anomaly
342.7898°
Eccentric anomaly
341.81169°
Mean motion
3.80582 °/min
Orbital period
94.59 mins
BSTAR
0
Loading maneuver chart data...
Computing Atmospheric mass density...
Loading historical data...
Loading historical data...
Loading historical data...
Loading historical data...
Loading historical data...
Loading historical data...
Loading historical data...
Other satellites on launch #6 in the year 2017 (2017-01-28 UTC)

Documentation

Showing up to 5 results
|